GW6795 Weather Reports


Display with metric or nautical units.
time (UTC)temp
F
wind
direction
speed
MPH
gust
MPH
rain 1hr
in
rain 24hr
in
rain mn
in
humidity
%
barometer
mb
20260506194546 51 307 3.0 3.0 0.00 0.00 0.06 77 1012.2
20260506194047 51 316 3.0 3.0 0.00 0.00 0.06 77 1011.9
20260506193547 51 344 3.0 4.0 0.00 0.00 0.06 77 1011.9
20260506193050 51 335 3.0 3.0 0.00 0.00 0.06 76 1011.9
20260506192546 51 313 3.0 3.0 0.00 0.00 0.06 77 1011.9
20260506192046 51 299 2.0 4.0 0.00 0.00 0.06 76 1011.9
20260506191547 51 332 0.0 4.0 0.00 0.00 0.06 76 1011.9
20260506191047 51 306 3.0 4.0 0.00 0.00 0.06 76 1011.9
20260506190546 51 313 3.0 5.0 0.00 0.00 0.06 75 1011.5
20260506190047 51 306 2.0 3.0 0.00 0.00 0.06 76 1011.5
20260506185546 51 311 2.0 3.0 0.00 0.00 0.06 76 1011.5
20260506185047 51 309 3.0 5.0 0.00 0.00 0.06 75 1011.5
20260506184547 52 335 2.0 7.0 0.00 0.00 0.06 76 1011.5
20260506184047 52 240 2.0 6.0 0.00 0.00 0.06 76 1011.5
20260506183546 52 292 3.0 3.0 0.00 0.00 0.06 76 1011.2
20260506183048 52 296 2.0 5.0 0.00 0.00 0.06 75 1011.5
20260506182546 52 353 3.0 5.0 0.00 0.00 0.06 75 1011.5
20260506182047 52 312 2.0 4.0 0.00 0.00 0.06 76 1011.2
20260506181546 52 305 2.0 4.0 0.00 0.00 0.06 76 1011.2
20260506181047 52 292 3.0 3.0 0.00 0.00 0.06 77 1011.2
20260506180546 52 293 3.0 5.0 0.00 0.00 0.06 76 1010.8
20260506180046 52 345 3.0 5.0 0.00 0.00 0.06 76 1011.2
20260506175547 52 305 2.0 3.0 0.00 0.00 0.06 77 1010.8
20260506175047 52 304 3.0 5.0 0.00 0.00 0.06 76 1010.8
20260506174548 52 302 3.0 3.0 0.00 0.00 0.06 76 1011.2
20260506174046 52 310 3.0 5.0 0.00 0.00 0.06 76 1010.8
20260506173550 51 359 3.0 5.0 0.00 0.00 0.06 76 1010.8
20260506173047 51 344 5.0 9.0 0.00 0.00 0.06 76 1010.8
20260506172547 51 295 3.0 5.0 0.00 0.00 0.06 77 1010.5
20260506172046 51 303 4.0 9.0 0.00 0.00 0.06 76 1010.5
20260506171546 51 305 2.0 5.0 0.00 0.00 0.06 78 1010.5
20260506171047 51 301 3.0 4.0 0.00 0.00 0.06 77 1010.5
20260506170548 51 337 3.0 4.0 0.00 0.00 0.06 77 1010.5
20260506170046 51 353 5.0 8.0 0.00 0.00 0.06 77 1010.5
20260506165547 51 325 3.0 4.0 0.00 0.00 0.06 78 1010.5
20260506165046 51 299 4.0 5.0 0.00 0.00 0.06 77 1010.2
20260506164546 52 284 2.0 7.0 0.00 0.00 0.06 76 1010.5
20260506164047 52 316 3.0 4.0 0.00 0.00 0.06 77 1010.2
20260506163546 52 287 3.0 8.0 0.00 0.00 0.06 76 1010.5
20260506163047 52 318 3.0 6.0 0.00 0.00 0.06 75 1010.2
20260506162546 52 314 4.0 5.0 0.00 0.00 0.06 75 1010.2
20260506162048 52 257 2.0 4.0 0.00 0.00 0.06 74 1010.2
20260506161546 52 59 3.0 6.0 0.00 0.00 0.06 73 1010.2
20260506161047 52 306 4.0 9.0 0.00 0.00 0.06 74 1010.2
20260506160546 53 304 4.0 5.0 0.00 0.00 0.06 72 1010.2
20260506160050 53 285 3.0 7.0 0.00 0.00 0.06 71 1010.2
20260506155547 53 319 3.0 4.0 0.00 0.00 0.06 70 1010.2
20260506155047 53 249 2.0 7.0 0.00 0.00 0.06 69 1010.5
20260506154547 53 293 1.0 7.0 0.00 0.00 0.06 70 1010.2
20260506154046 53 312 5.0 6.0 0.00 0.00 0.06 69 1010.2
20260506153547 54 232 2.0 5.0 0.00 0.00 0.06 68 1009.8
20260506153047 54 354 3.0 5.0 0.00 0.00 0.06 68 1009.8
20260506152547 54 294 4.0 6.0 0.00 0.00 0.06 67 1009.8
20260506152046 54 294 3.0 5.0 0.00 0.00 0.06 67 1009.8
20260506151547 54 288 3.0 4.0 0.00 0.00 0.06 68 1010.2
20260506151047 54 296 4.0 6.0 0.00 0.00 0.06 67 1010.2
20260506150547 54 273 2.0 4.0 0.00 0.00 0.06 70 1010.2
20260506150046 54 258 3.0 4.0 0.00 0.00 0.06 69 1009.8
20260506145547 54 333 3.0 4.0 0.00 0.00 0.06 69 1010.2
20260506145047 54 1 5.0 6.0 0.00 0.00 0.06 69 1009.8
20260506144549 54 32 9.0 10.0 0.00 0.00 0.06 66 1010.2
20260506144047 55 355 5.0 6.0 0.00 0.00 0.06 64 1009.8
20260506143547 55 311 3.0 9.0 0.00 0.00 0.06 64 1009.8
20260506143047 55 248 3.0 7.0 0.00 0.00 0.06 63 1009.8
20260506142546 55 268 3.0 4.0 0.00 0.00 0.06 62 1009.8
20260506142047 55 291 5.0 5.0 0.00 0.00 0.06 64 1009.8
20260506141546 55 281 6.0 6.0 0.00 0.00 0.06 63 1009.8
20260506141047 55 339 5.0 10.0 0.00 0.00 0.06 63 1009.8
20260506140547 55 339 2.0 5.0 0.00 0.00 0.06 63 1009.8
20260506140047 55 263 3.0 3.0 0.00 0.00 0.06 65 1009.8
20260506135547 54 313 4.0 6.0 0.00 0.00 0.06 63 1009.8
20260506135047 55 280 3.0 7.0 0.00 0.00 0.06 63 1009.8
20260506134547 55 296 6.0 8.0 0.00 0.00 0.06 63 1009.8
20260506134047 54 311 4.0 7.0 0.00 0.00 0.06 66 1009.8
20260506133547 54 78 3.0 5.0 0.00 0.00 0.06 65 1009.8
20260506133046 54 21 2.0 7.0 0.00 0.00 0.06 66 1009.8
20260506132546 54 316 5.0 6.0 0.00 0.00 0.06 66 1009.8
20260506132046 55 310 4.0 6.0 0.00 0.00 0.06 66 1009.8
20260506131548 55 316 5.0 5.0 0.00 0.00 0.06 66 1009.8
20260506131047 54 355 4.0 5.0 0.00 0.00 0.06 68 1009.8
20260506130547 54 282 4.0 7.0 0.00 0.00 0.06 65 1009.8
20260506130047 54 290 5.0 5.0 0.00 0.00 0.06 66 1009.8
20260506125547 54 302 3.0 7.0 0.00 0.00 0.06 66 1009.5
20260506125047 54 303 3.0 6.0 0.00 0.00 0.06 66 1009.5
20260506124546 54 305 6.0 8.0 0.00 0.00 0.06 65 1009.8
20260506124047 54 295 3.0 3.0 0.00 0.00 0.06 67 1009.8
20260506123546 54 311 2.0 5.0 0.00 0.00 0.06 67 1009.5
20260506123047 54 330 3.0 8.0 0.00 0.00 0.06 67 1009.5
20260506122547 54 38 2.0 9.0 0.00 0.00 0.06 66 1009.5
20260506122047 54 286 3.0 5.0 0.00 0.00 0.06 67 1009.5
20260506121546 55 331 2.0 7.0 0.00 0.00 0.06 65 1009.5
20260506121047 55 316 3.0 5.0 0.00 0.00 0.06 66 1009.5
20260506120547 55 284 4.0 7.0 0.00 0.00 0.06 66 1009.1
20260506120046 55 341 3.0 7.0 0.00 0.00 0.06 65 1009.1
20260506115546 55 309 6.0 7.0 0.00 0.00 0.06 64 1009.5
20260506115047 55 330 4.0 11.0 0.00 0.00 0.06 66 1009.1
20260506114547 54 255 2.0 4.0 0.00 0.00 0.06 67 1009.1
20260506114047 54 296 3.0 6.0 0.00 0.00 0.06 67 1009.1
20260506113547 54 268 6.0 8.0 0.00 0.00 0.06 66 1009.1
20260506113047 54 11 6.0 6.0 0.00 0.00 0.06 68 1009.1
20260506112546 54 304 4.0 9.0 0.00 0.00 0.06 69 1009.1
20260506112046 54 321 8.0 11.0 0.00 0.00 0.06 68 1009.1
20260506111547 54 318 5.0 5.0 0.00 0.00 0.06 69 1009.1
20260506111046 54 319 3.0 10.0 0.00 0.00 0.06 71 1009.1
20260506110547 53 319 3.0 11.0 0.00 0.00 0.06 68 1009.5
20260506110047 53 305 2.0 10.0 0.00 0.00 0.06 71 1009.1
20260506105546 53 275 2.0 5.0 0.00 0.00 0.06 74 1009.1
20260506105047 53 307 5.0 5.0 0.00 0.00 0.06 75 1009.1
20260506104546 52 10 3.0 5.0 0.00 0.00 0.06 78 1009.5
20260506104046 52 318 5.0 11.0 0.00 0.00 0.06 78 1009.5
20260506103549 53 308 7.0 9.0 0.00 0.00 0.06 79 1009.1
20260506103047 53 276 3.0 7.0 0.00 0.00 0.06 79 1009.1
20260506102547 53 34 2.0 9.0 0.00 0.00 0.06 80 1009.1
20260506102047 53 304 4.0 6.0 0.00 0.00 0.06 79 1009.1
20260506101550 53 303 6.0 8.0 0.00 0.00 0.06 79 1009.1
20260506101047 53 0 3.0 8.0 0.00 0.00 0.06 79 1009.1
20260506100546 53 307 4.0 7.0 0.00 0.00 0.06 80 1009.1
20260506100047 53 280 4.0 7.0 0.00 0.00 0.06 79 1009.1
20260506095546 53 358 3.0 6.0 0.00 0.00 0.06 79 1008.8
20260506095046 53 352 4.0 6.0 0.00 0.00 0.06 79 1008.8
20260506094547 53 288 3.0 9.0 0.00 0.00 0.06 79 1008.8
20260506094047 53 330 4.0 6.0 0.00 0.00 0.06 79 1008.8
20260506093546 53 10 4.0 5.0 0.00 0.00 0.06 79 1008.5
20260506093047 53 277 2.0 4.0 0.00 0.00 0.06 79 1008.8
20260506092546 53 301 4.0 9.0 0.00 0.00 0.06 79 1008.5
20260506092046 54 297 5.0 8.0 0.00 0.00 0.06 80 1008.5
20260506091549 53 291 4.0 5.0 0.00 0.00 0.06 80 1008.5
20260506091047 53 37 3.0 6.0 0.00 0.00 0.06 80 1008.5
20260506090546 53 319 4.0 8.0 0.00 0.00 0.06 80 1008.5
20260506090046 53 264 3.0 6.0 0.00 0.00 0.06 81 1008.5
20260506085546 53 291 5.0 8.0 0.00 0.00 0.06 82 1008.5
20260506085047 53 289 4.0 6.0 0.00 0.00 0.06 84 1008.5
20260506084546 52 303 3.0 8.0 0.00 0.00 0.06 84 1008.5
20260506084046 52 313 0.0 5.0 0.00 0.00 0.06 84 1008.5
20260506083546 52 340 3.0 10.0 0.00 0.00 0.06 84 1008.5
20260506083046 52 285 2.0 7.0 0.00 0.00 0.06 85 1008.5
20260506082547 52 305 2.0 5.0 0.00 0.00 0.06 86 1008.5
20260506082047 51 303 3.0 4.0 0.00 0.00 0.06 86 1008.1
20260506081547 51 297 4.0 5.0 0.00 0.00 0.06 87 1008.1
20260506081046 51 314 3.0 5.0 0.00 0.00 0.06 87 1008.1
20260506080546 51 302 3.0 8.0 0.00 0.00 0.06 87 1008.5
20260506073046 50 281 3.0 4.0 0.00 0.00 0.06 90 1008.1
20260506072547 50 300 5.0 6.0 0.00 0.00 0.06 91 1008.1
20260506072048 50 327 3.0 4.0 0.00 0.00 0.06 92 1008.1
20260506071547 50 293 3.0 6.0 0.00 0.00 0.06 92 1008.1
20260506071046 50 273 3.0 7.0 0.00 0.00 0.06 91 1008.5
20260506070547 50 287 3.0 4.0 0.00 0.00 0.06 92 1008.1
20260506062047 49 302 3.0 8.0 0.02 0.00 0.05 93 1007.8
20260506061546 49 313 3.0 4.0 0.02 0.00 0.05 93 1008.1
20260506061046 49 296 7.0 7.0 0.00 0.00 0.05 93 1008.1
20260506060547 49 285 5.0 9.0 0.02 0.00 0.05 93 1007.8
20260506051047 48 258 3.0 5.0 0.00 0.00 0.04 94 1008.1
20260506050547 48 330 3.0 9.0 0.00 0.00 0.04 93 1007.8
20260506045046 48 296 4.0 5.0 0.00 0.00 0.04 94 1007.8
20260506044547 48 335 5.0 5.0 0.00 0.00 0.04 94 1007.8
20260506044047 48 304 3.0 6.0 0.00 0.00 0.04 94 1007.8
20260506043547 48 326 4.0 4.0 0.02 0.00 0.04 94 1007.8
20260506043047 48 293 3.0 6.0 0.02 0.00 0.04 94 1007.8
20260506042546 48 280 4.0 5.0 0.00 0.00 0.04 94 1007.8
20260506042046 48 301 2.0 7.0 0.00 0.00 0.04 94 1007.5
20260506041547 48 295 3.0 5.0 0.00 0.00 0.04 95 1007.8
20260506041046 48 270 4.0 8.0 0.00 0.00 0.04 95 1007.8
20260506040546 48 346 0.0 5.0 0.00 0.00 0.04 95 1008.1
20260506040047 48 297 2.0 3.0 0.00 0.00 0.04 95 1007.8
20260506035547 48 295 3.0 3.0 0.00 0.00 0.04 95 1007.8
20260506035047 48 302 3.0 5.0 0.00 0.00 0.04 95 1007.8
20260506034546 48 294 3.0 6.0 0.02 0.00 0.04 95 1007.8
20260506034046 48 297 3.0 7.0 0.00 0.00 0.03 95 1007.8
20260506033546 48 326 4.0 5.0 0.02 0.00 0.03 95 1007.8
20260506033046 48 289 3.0 6.0 0.05 0.00 0.03 95 1007.8
20260506032546 48 302 1.0 6.0 0.02 0.00 0.03 95 1007.8
20260506032046 48 290 5.0 7.0 0.00 0.00 0.02 95 1007.8
20260506031547 48 293 3.0 6.0 0.02 0.00 0.02 95 1007.8
20260506031046 48 318 3.0 3.0 0.02 0.00 0.02 95 1007.8
20260506030547 48 307 3.0 5.0 0.00 0.00 0.02 95 1007.8
20260506030046 48 272 2.0 6.0 0.02 0.00 0.02 95 1008.1
20260506025547 48 304 3.0 5.0 0.02 0.00 0.02 94 1008.1
20260506025046 48 349 3.0 6.0 0.00 0.00 0.02 94 1008.1
20260506024546 48 292 3.0 7.0 0.00 0.00 0.02 94 1008.1
20260506024047 48 280 2.0 4.0 0.00 0.00 0.02 94 1008.1
20260506023546 48 0 0.0 10.0 0.00 0.00 0.02 94 1008.1
20260506023046 48 285 2.0 4.0 0.00 0.00 0.02 94 1008.1
20260506022546 48 310 3.0 3.0 0.00 0.00 0.02 94 1008.1
20260506022046 48 298 3.0 6.0 0.00 0.00 0.02 94 1008.1
20260506021547 48 287 4.0 5.0 0.00 0.00 0.02 94 1008.1
20260506021047 48 291 3.0 7.0 0.02 0.00 0.02 93 1008.1
20260506020546 48 305 3.0 4.0 0.02 0.00 0.02 93 1008.5
20260506020047 48 317 0.0 4.0 0.00 0.00 0.01 93 1008.1
20260506015546 48 310 3.0 8.0 0.00 0.00 0.01 93 1008.1
20260506015046 49 311 3.0 5.0 0.00 0.00 0.01 93 1008.1
20260506014548 49 247 4.0 7.0 0.00 0.00 0.01 92 1008.5
20260506014046 49 295 2.0 4.0 0.00 0.00 0.01 92 1008.5
20260506013547 49 300 2.0 3.0 0.00 0.00 0.01 92 1008.1
20260506013046 49 319 3.0 4.0 0.00 0.00 0.01 91 1008.5
20260506012546 49 329 4.0 6.0 0.02 0.00 0.01 91 1008.5
20260506012047 49 344 2.0 4.0 0.02 0.00 0.01 90 1008.5
20260506011547 49 286 4.0 6.0 0.00 0.00 0.01 89 1008.5
20260506011047 49 356 3.0 7.0 0.02 0.00 0.01 89 1008.5
20260506010547 50 313 3.0 3.0 0.02 0.00 0.01 88 1008.5
20260506010046 50 278 2.0 9.0 0.02 0.00 0.00 87 1008.5
20260506005546 50 302 3.0 5.0 0.02 0.00 0.00 87 1008.5
20260506005047 50 305 4.0 6.0 0.00 0.00 0.00 86 1008.5
20260506004546 50 273 2.0 9.0 0.00 0.00 0.00 85 1008.5
20260506004047 50 338 2.0 5.0 0.00 0.00 0.00 85 1008.5
20260506003546 50 276 4.0 7.0 0.00 0.00 0.00 84 1008.8
20260506003047 50 253 2.0 6.0 0.00 0.00 0.00 84 1008.8
20260506002547 50 341 2.0 7.0 0.00 0.00 0.00 83 1008.8
20260506002047 50 315 2.0 5.0 0.00 0.00 0.00 83 1008.8
20260506001547 50 291 3.0 5.0 0.00 0.00 0.00 83 1008.8
20260506001047 50 329 3.0 5.0 0.00 0.00 0.00 83 1008.8
20260506000546 50 299 3.0 7.0 0.00 0.00 0.00 83 1008.8
20260506000046 50 306 4.0 7.0 0.00 0.00 0.00 83 1008.8
20260505235547 50 289 3.0 6.0 0.00 0.00 0.00 83 1008.8
20260505235047 50 336 3.0 10.0 0.00 0.00 0.00 83 1008.8
20260505234546 51 311 4.0 8.0 0.00 0.00 0.00 83 1009.1
20260505234047 51 290 3.0 10.0 0.00 0.00 0.00 83 1008.8
20260505233546 51 288 3.0 5.0 0.00 0.00 0.00 84 1009.1
20260505233047 51 291 3.0 5.0 0.00 0.00 0.00 83 1009.1
20260505232547 51 328 3.0 10.0 0.00 0.00 0.00 83 1009.1
20260505232046 51 256 5.0 5.0 0.00 0.00 0.00 83 1009.1
20260505231546 51 351 0.0 6.0 0.00 0.00 0.00 83 1009.1
20260505231046 51 296 4.0 8.0 0.00 0.00 0.00 84 1009.1
20260505230547 51 286 3.0 6.0 0.00 0.00 0.00 84 1009.1
20260505230046 51 299 2.0 6.0 0.00 0.00 0.00 84 1009.1
20260505225546 51 286 3.0 6.0 0.00 0.00 0.00 84 1009.1
20260505225048 51 278 3.0 4.0 0.00 0.00 0.00 84 1009.1
20260505224546 51 333 1.0 5.0 0.00 0.00 0.00 84 1009.1
20260505224046 51 295 2.0 5.0 0.00 0.00 0.00 84 1009.5
20260505223547 51 259 4.0 5.0 0.00 0.00 0.00 84 1009.1
20260505223047 51 284 6.0 7.0 0.00 0.00 0.00 84 1009.1
20260505222546 51 349 4.0 6.0 0.00 0.00 0.00 84 1009.5
20260505222046 51 281 5.0 6.0 0.00 0.00 0.00 84 1009.5
20260505221546 51 330 3.0 3.0 0.00 0.00 0.00 85 1009.5
20260505221048 51 325 3.0 5.0 0.00 0.00 0.00 85 1009.5
20260505220546 51 294 3.0 6.0 0.00 0.00 0.00 86 1009.5
20260505220046 51 289 3.0 4.0 0.00 0.00 0.00 86 1009.5
20260505215546 51 320 4.0 5.0 0.00 0.00 0.42 86 1009.5
20260505215046 51 320 3.0 7.0 0.00 0.00 0.42 87 1009.8
20260505214547 51 316 3.0 5.0 0.00 0.00 0.42 88 1009.8
20260505214046 51 337 3.0 7.0 0.00 0.00 0.42 88 1009.5
20260505213547 51 337 3.0 4.0 0.00 0.00 0.42 88 1009.8
20260505213046 51 320 2.0 5.0 0.00 0.00 0.42 87 1009.8
20260505212546 51 339 2.0 5.0 0.00 0.00 0.42 87 1009.8
20260505212047 51 305 1.0 5.0 0.00 0.00 0.42 87 1009.8
20260505211547 51 333 5.0 9.0 0.00 0.00 0.42 86 1009.8
20260505211048 52 318 2.0 6.0 0.00 0.00 0.42 86 1009.8
20260505210548 52 315 3.0 7.0 0.00 0.00 0.42 86 1009.8
20260505210046 52 247 2.0 5.0 0.00 0.00 0.42 86 1009.8
20260505205547 52 325 4.0 8.0 0.00 0.00 0.42 85 1009.8
20260505205046 52 306 3.0 5.0 0.00 0.00 0.42 85 1009.8
20260505204546 52 325 3.0 4.0 0.00 0.00 0.42 85 1009.8
20260505204047 52 312 6.0 7.0 0.00 0.00 0.42 85 1009.8
20260505203547 52 293 4.0 9.0 0.00 0.00 0.42 85 1009.8
20260505203048 52 295 3.0 7.0 0.00 0.00 0.42 85 1009.8
20260505202546 52 349 0.0 4.0 0.00 0.00 0.42 85 1009.8
20260505202046 52 313 3.0 6.0 0.00 0.00 0.42 84 1009.8
20260505201546 52 309 4.0 6.0 0.00 0.00 0.42 84 1009.8
20260505201046 52 270 1.0 5.0 0.00 0.00 0.42 84 1009.8
20260505200546 52 308 2.0 5.0 0.00 0.00 0.42 84 1009.8
20260505200047 52 49 5.0 6.0 0.00 0.00 0.42 84 1009.8
20260505195111 52 296 7.0 7.0 0.00 0.00 0.42 84 1009.8